Find Echostar III

NORAD ID: 25004 Int'l Des: 1997-059 Owner: ECHO Country: US operational
HEOCIRCULAR

实时位置

正在加载3D地球...

关于 Echostar III

正在加载描述...

即将过境

Passes for default location (London). Set your location on the main map for personalized predictions.

高度历史

Loading altitude history...

两行轨道根数

1 25004U 97059A 26120.22708919 -.00000226 00000-0 00000-0 0 9991
2 25004 9.4167 56.2280 0015570 345.8419 26.0729 0.98875244104137
Epoch: Apr 30, 2026 • Age: 12 hours

当前状态

高度 36244.8 km
速度 3.06 km/s
星下点 -1.05°S, 125.61°E
发射日期 Oct 5, 1997
运行时间 28.5 years
类型 other

技术详情

分类 Payload
质量 3670.00 kg
干质量 1600.00 kg
总质量 3670.00 kg
长度 2.60 m
直径 2.00 m
跨度 22.00 m
形状 Box + 2 Pan
制造商 LMCSS
平台类型 A2100
阶段状态 In Orbit
所有者/国家 ECHO/US

Most Searched